Home > Weather > Allentown > Past weeks

Flag for U.S.A. Weather for the Past 2 Weeks in Allentown, Pennsylvania, U.S.A.

Now
41 °F

Overcast.


Feels Like: 36 °F
Forecast: 31 / 38 °F
Wind: 8 mph from Northeast

Location: Lehigh Valley International Airport

Current Time: Feb 8, 2016 at 12:33:03 PM

Latest Report: Feb 8, 2016 at 11:51 AM


Visibility: 10 mi

Pressure: 29.77 "Hg

Humidity: 55%

Dew point: 26 °F

Location of AllentownLocation

Historic Weather in Allentown — Graph

°F

Allentown Temperature Yesterday

Maximum temperature yesterday: 47 °F (at 1:51 PM)
Minimum temperature yesterday: 19 °F (at 6:51 AM)
Average temperature yesterday: 33 °F

High & Low Weather Summary for the Past Weeks

 TemperatureHumidityPressure
High56 °F (Feb 3, 5:51 PM)97% (Feb 3, 9:51 PM)30.44 "Hg (Feb 3, 9:51 PM)
Low10 °F (Jan 28, 6:51 AM)30% (Feb 7, 1:51 PM)29.51 "Hg (Jan 29, 7:51 AM)
Average34 °F65%30.04 "Hg
* Reported Jan 24 10:51 AM — Feb 8 10:51 AM, Allentown, Weather by CustomWeather, © 2016

Note: Actual official high and low records may vary slightly from our data, if they occured in-between our weather recording intervals... More about our weather records

Advertising

Allentown Weather History for the Previous 24 Hours

 ConditionsComfort  
Time TempWeatherWind HumidityBarometerVisibility
10:51 AM
Mon, Feb 8
39 °FOvercast.12 mph57%29.80 "Hg10 mi
9:51 AM38 °FOvercast.9 mph60%29.82 "Hg10 mi
8:51 AM37 °FOvercast.6 mph62%29.81 "Hg10 mi
7:51 AM36 °FOvercast.6 mph62%29.80 "Hg10 mi
6:51 AM35 °FOvercast.5 mph61%29.80 "Hg10 mi
5:51 AM34 °FClear.8 mph64%29.78 "Hg10 mi
4:51 AM35 °FClear.10 mph59%29.76 "Hg10 mi
3:51 AM36 °FClear.12 mph54%29.76 "Hg10 mi
2:51 AM35 °FClear.7 mph54%29.80 "Hg10 mi
1:51 AM35 °FClear.8 mph54%29.83 "Hg10 mi
12:51 AM33 °FClear.6 mph58%29.86 "Hg10 mi
11:51 PM
Sun, Feb 7
33 °FClear.8 mph61%29.90 "Hg10 mi
10:51 PM32 °FClear.3 mph66%29.92 "Hg10 mi
9:51 PM33 °FClear.No wind66%29.94 "Hg10 mi
8:51 PM33 °FClear.No wind66%29.98 "Hg10 mi
7:51 PM38 °FClear.3 mph51%29.98 "Hg10 mi
6:51 PM41 °FClear.5 mph43%30.00 "Hg10 mi
5:51 PM40 °FClear.5 mph49%29.98 "Hg10 mi
4:51 PM43 °FSunny.5 mph42%30.01 "Hg10 mi
3:51 PM45 °FSunny.No wind35%30.02 "Hg10 mi
2:51 PM46 °FSunny.5 mph34%30.05 "Hg10 mi
1:51 PM47 °FSunny.No wind30%30.08 "Hg10 mi
12:51 PM46 °FSunny.No wind37%30.11 "Hg10 mi
Weather by CustomWeather, © 2016

See weather overviewHow to use our weather pages